Regional Weather Roundup
Issued by NWS Charleston, SC

Current Version | Previous Version | Graphics & Text | Print | Product List | Glossary On
Versions: 1 2 3 4 5 6 7 8 9 10 11 12 13 14 15 16 17 18 19 20 21 22 23 24 25 26 27 28 29 30 31 32 33 34 35 36 37 38 39 40 41 42 43 44 45 46 47 48 49 50
000
ASUS42 KCHS 310228
RWRCHS

REGIONAL WEATHER ROUNDUP
NATIONAL WEATHER SERVICE CHARLESTON SC
1000 PM EDT TUE AUG 30 2016

NOTE: "FAIR" INDICATES FEW OR NO CLOUDS BELOW 12,000 FEET WITH NO
SIGNIFICANT WEATHER AND/OR OBSTRUCTIONS TO VISIBILITY.

NOT ALL STATIONS ARE QUALITY CONTROLLED. USE DATA WITH CAUTION...
ESPECIALLY DEWPOINT OBSERVATIONS.

SCZ027-030-031-034>040-042>050-310300-
...SOUTHEAST SOUTH CAROLINA...

CITY           SKY/WX    TMP DP  RH WIND       PRES   REMARKS
N CHARLESTON   PTCLDY    79  71  76 SE3       30.00S
WATERFRONT PRK   N/A     82  74  77 E7        29.98R
MOUNT PLEASANT FAIR      75  73  94 CALM      30.01R
JOHNS ISLAND   FAIR      77  75  94 CALM      30.01R
PINOPOLIS        N/A     81  73  78 CALM      29.94R
MONCKS CORNER  FAIR      72  72 100 CALM      30.01R
SUMMERVILLE    FAIR      73  73 100 CALM      30.02R
BEAUFORT MCAS  CLEAR     81  73  76 E6        30.00S
BEAUFORT ARPT  FAIR      77  73  88 E3        30.00R
HILTON HEAD IS CLEAR     81  75  83 VRB3      30.01R
WALTERBORO     CLEAR     77  77 100 CALM      30.02R
ALLENDALE      FAIR      77  72  83 CALM      30.00S

...SOUTHERN MIDLANDS AND PEE DEE...

CITY           SKY/WX    TMP DP  RH WIND       PRES   REMARKS
GEORGETOWN     FAIR      73  72  94 CALM      30.03R
KINGSTREE      FAIR      72  64  78 CALM      30.01S
ORANGEBURG     CLEAR     77  71  82 SE3       30.01R
BARNWELL       NOT AVBL
AIKEN          FAIR      73  64  73 SE3       30.06R
MANNING        FAIR      72  68  88 CALM      30.01S
COLUMBIA       PTCLDY    83  68  60 E5        30.00R
SUMTER         CLEAR     78  66  67 CALM      29.99R
FLORENCE       PTCLDY    76  65  68 CALM      30.02R
MYRTLE BEACH   PTCLDY    82  70  65 S9        30.03R
N MYRTLE BEACH MOCLDY    82  76  81 S3        30.01R

$$

GAZ063-065-086>088-099>101-113>116-118-119-134>141-150-310300-
...SOUTHEAST GEORGIA...

CITY           SKY/WX    TMP DP  RH WIND       PRES   REMARKS
SAVANNAH ARPT  PTCLDY    79  72  79 E7        30.00R
HUNTER AAF     PTCLDY    79  77  94 E5        29.97R
FORT STEWART   MOCLDY    78  72  83 NE2       29.97R
STATESBORO     CLEAR     77  73  88 CALM      30.00S
SYLVANIA       NOT AVBL
CLAXTON        FAIR      76  74  93 E3        30.00S

...CSRA...CENTRAL AND FAR SOUTHEAST GEORGIA...

CITY           SKY/WX    TMP DP  RH WIND       PRES   REMARKS
THOMSON        CLOUDY    78  75  90 CALM      30.06R
AUGUSTA-BUSH   CLEAR     75  74  96 CALM      30.00R
AUGUSTA-DANIEL CLOUDY    81  72  74 E5        30.02R
SWAINSBORO     FAIR      79  72  78 E5        30.01R
VIDALIA        PTCLDY    79  73  83 SE5       30.00R
EASTMAN        FAIR      78  76  95 E5        30.02R
HAZLEHURST     FAIR      81  73  77 CALM      29.98R
ALMA           CLEAR     77  74  90 VRB5      29.98R
WAYCROSS         N/A     80  76  89 E9G16     29.97S
JESUP          MOCLDY    77  77 100 CALM      29.98S
BAXLEY         FAIR      79  77  94 E5        29.99R
BRUNSWICK      PTCLDY    79  77  94 NE13      29.97F
SAINT SIMONS   RAIN      76  74  93 E18G26    29.97R FOG

$$

SCZ027-028-034-036>038-045-046-048>050-GAZ119-141-310300-
...LAKE AND SUPPLEMENTAL COASTAL OBSERVATIONS...

STATION/POSITION TIME  TEMP    WIND        PRES    WAVE   SWELL
                       AIR SEA DIR/SP/G            HT/PER HT/PER/DIR
                 (UTC) (F)     (DEG/KT/KT) (MB)    (FT/S) (FT/S/D)
WINYAH BAY       0145   82     190/  2     1015.0S
LAKE MURRAY      0100   86     100/  2/  3 1015.2R
ACE BASIN NERRS  0100   79        CALM     1016.0R
FORT PULASKI     0200   82 85              1016.1R
SAPELO ISLAND    0200   80      50/ 10     1015.0S

$$

ANZ835-935-AMZ111-154-330-350-352-354-370-450-454-472-310300-
...C-MAN AND BUOY OBSERVATIONS...

STATION/POSITION TIME  TEMP    WIND        PRES    WAVE   SWELL
                       AIR SEA DIR/SP/G            HT/PER HT/PER/DIR
                 (UTC) (F)     (DEG/KT/KT) (MB)    (FT/S) (FT/S/D)
BUOY 41004       0150   83 84   90/  8/ 10 1015.4R   4/11   3/110/11
BUOY 41008       0150   82 85   70/ 17/ 21 1014.5R   3/12   2/120/12
FOLLY BEACH CMAN 0200   82     120/  9/ 11 1016.2R
CAPERS NEARSHORE 0208   82 83  120/  8/ 12 1015.9R
FRIPP NEARSHORE  0208   83 85  110/ 14/ 17 1015.2R


STATION/POSITION TIME  TEMP    WIND        PRES    WAVE   SWELL
                       AIR SEA DIR/SP/G            HT/PER HT/PER/DIR
                 (UTC) (F)     (DEG/KT/KT) (MB)    (FT/S) (FT/S/D)
5E ST. MARYS GA  0201      85                N/A     5/12   2/100/12
FRYING PAN BUOY  0200   83 85   70/  2/  4 1015.8R
BUOY 41025       0150   81 84   80/ 10/ 14 1014.7R   6/11   5/ 90/11
CAPE LOOKOUT NC  0200   82      30/ 13/ 15 1015.5R
BUOY 41002       0150   83 84  190/ 12/ 16 1016.1R   4/10   3/ 60/10
BUOY 41010       NOT AVBL
ST AUGUSTINE FL  0200   80 83  130/  8/ 10 1013.2S


$$




USA.gov is the U.S. government's official web portal to all federal, state and local government web resources and services.